Location: Asbacherhof
(48.8543°N, 10.7903°E)
Time: 23:00:34
(UTC+00:00)

USA 308 - Pass Details

Date: 26 May 2022
Orbit: 549 x 558 km, 54.0° (Epoch: 14 June)

Event Time Altitude Azimuth Distance (km) Brightness Sun altitude
Exits shadow 00:40:53 38° 215° (SW) 860 3.3 -17.4°
Maximum altitude 00:42:20 66° 147° (SSE) 613 2.8 -17.3°
Drops below altitude 10° 00:46:29 10° 65° (ENE) 1,845 6.2 -17.1°
Sets 00:48:46 0° 63° (ENE) 2,751 7.2 -16.9°
